This demonstration page uses our WeatherBlox Daily Observations layout. Learn more.

Left ArrowRight Arrow

39.95238, -75.16362

Hourly Observations for May 27, 2015

Temp ( °F °C ) Dew Point ( °F °C ) Humidity (%) Winds ( mph kmh ) Pressure ( in mb ) Visibility ( mi km ) Precip ( " mm )
12:54 am 00:54 Partly Cloudy 73 22.8 64 17.8 74 74 SSW 8 13 30.17 1022 10 16 0.00 0.00
1:54 am 01:54 Mostly Clear 71 21.7 64 17.8 79 79 SSW 9 15 30.17 1022 10 16 0.00 0.00
2:54 am 02:54 Mostly Clear 71 21.7 65 18.3 81 81 S 8 13 30.16 1021 10 16 0.00 0.00
3:54 am 03:54 Mostly Cloudy 71 21.7 65 18.3 81 81 S 8 13 30.16 1021 10 16 0.00 0.00
4:54 am 04:54 Mostly Cloudy 71 21.7 66 18.9 84 84 S 7 11 30.16 1021 10 16 0.00 0.00
5:26 am 05:26 Cloudy 72 22 66 19 83 83 S 8 13 30.15 1021 10 16 0.00 0.00
5:46 am 05:46 Cloudy 72 22.2 66 18.9 82 82 S 9 15 30.15 1021 10 16 0.00 0.00
5:54 am 05:54 Cloudy 72 22.2 66 18.9 82 82 S 9 15 30.16 1021 10 16 0.00 0.00
6:03 am 06:03 Cloudy 72 22.2 66 18.9 82 82 SSW 8 13 30.18 1022 10 16 0.00 0.00
6:20 am 06:20 Cloudy 72 22 66 19 83 83 S 10 17 30.18 1022 10 16 0.00 0.00
6:54 am 06:54 Cloudy 73 22.8 67 19.4 81 81 S 9 15 30.16 1022 10 16 0.00 0.00
7:26 am 07:26 Cloudy 73 22.8 67 19.4 81 81 S 10 17 30.18 1022 10 16 0.00 0.00
7:54 am 07:54 Cloudy 74 23.3 67 19.4 79 79 SSW 10 17 30.17 1022 10 16 0.00 0.00
8:54 am 08:54 Cloudy 76 24.4 68 20 77 77 SW 13 20 30.18 1022 10 16 0.00 0.00
9:45 am 09:45 Cloudy 77 25 68 20 74 74 SW 14 22 30.18 1022 10 16 0.00 0.00
9:54 am 09:54 Cloudy 77 25 68 20 74 74 SW 14 22 30.18 1022 10 16 0.00 0.00
10:54 am 10:54 Mostly Cloudy 80 26.7 68 20 67 67 SSW 9 15 30.17 1022 10 16 0.00 0.00
11:08 am 11:08 Mostly Cloudy 81 27 68 20 66 66 SSW 10 17 30.18 1022 10 16 0.00 0.00
11:42 am 11:42 Partly Cloudy 83 28.3 69 20.6 63 63 SW 9 15 30.15 1021 10 16 0.00 0.00
11:54 am 11:54 Partly Cloudy 83 28.3 69 20.6 63 63 SW 9 15 30.16 1021 10 16 0.00 0.00
12:54 pm 12:54 Mostly Cloudy 85 29.4 69 20.6 59 59 SW 14 22 30.15 1021 10 16 0.00 0.00
1:54 pm 13:54 Mostly Cloudy 87 30.6 68 20 53 53 SW 16 26 30.13 1020 10 16 0.00 0.00
2:54 pm 14:54 Mostly Cloudy 87 30.6 67 19.4 51 51 SSW 17 28 30.11 1020 10 16 0.00 0.00
3:41 pm 15:41 Partly Cloudy with Thunderstorms 87 30.6 67 19.4 51 51 S 14 22 30.09 1019 10 16 0.00 0.00
3:54 pm 15:54 Partly Cloudy with Thunderstorms 87 30.6 68 20 53 53 S 13 20 30.09 1019 10 16 0.00 0.00
4:16 pm 16:16 Mostly Cloudy 87 30.6 66 18.9 50 50 SSW 15 24 30.09 1019 10 16 0.00 0.00
4:54 pm 16:54 Mostly Cloudy 88 31.1 67 19.4 50 50 SW 17 28 30.09 1019 10 16 0.00 0.00
5:38 pm 17:38 Mostly Cloudy with Thunderstorms 86 30 67 19.4 53 53 SSW 14 22 30.09 1019 10 16 0.00 0.00
5:54 pm 17:54 Mostly Cloudy with Thunderstorms 83 28.3 66 18.9 57 57 W 21 33 30.11 1020 10 16 0.00 0.00
5:58 pm 17:58 Mostly Cloudy with Thunderstorms 81 27 64 18 58 58 W 26 43 30.12 1020 2 3 0.00 0.00
6:03 pm 18:03 Cloudy with Strong Thunderstorms 77 25 68 20 74 74 WNW 26 43 30.12 1020 1 1 0.00 0.03
6:17 pm 18:17 Mostly Cloudy with Strong Thunderstorms 74 23.3 69 20.6 85 85 WSW 5 7 30.12 1020 5 8 0.49 12.45
6:26 pm 18:26 Mostly Cloudy with Light Rain 75 24 68 20 78 78 S 6 9 30.12 1020 10 16 0.00 0.00
6:54 pm 18:54 Cloudy 76 24.4 68 20 77 77 WSW 8 13 30.12 1020 10 16 0.57 14.48
7:01 pm 19:01 Cloudy with Thunderstorms 77 25 69 20.6 77 77 SW 7 11 30.12 1020 10 16 0.00 0.00
7:20 pm 19:20 Cloudy 76 24.4 69 20.6 79 79 SSW 6 9 30.12 1020 10 16 0.00 0.00
7:54 pm 19:54 Mostly Cloudy 75 23.9 69 20.6 82 82 SSE 7 11 30.13 1020 10 16 0.00 0.00
8:54 pm 20:54 Mostly Cloudy 74 23.3 69 20.6 85 85 SSE 5 7 30.14 1021 10 16 0.00 0.00
9:12 pm 21:12 Mostly Cloudy with Thunderstorms 73 23 70 21 89 89 SSE 6 9 30.15 1021 10 16 0.00 0.00
9:31 pm 21:31 Mostly Cloudy 74 23.3 70 21.1 88 88 S 6 9 30.15 1021 10 16 0.03 0.76
9:54 pm 21:54 Mostly Cloudy 74 23.3 70 21.1 88 88 S 6 9 30.15 1021 10 16 0.03 0.76
10:54 pm 22:54 Mostly Cloudy 74 23.3 70 21.1 88 88 SSW 7 11 30.16 1021 10 16 0.00 0.00
11:54 pm 23:54 Mostly Cloudy 73 22.8 70 21.1 90 90 SSW 8 13 30.16 1021 10 16 0.00 0.00

Powered by AerisWeather